Alexandria, MN

12:34 AM CDT on May 27, 2017 (GMT -0500)
Chandler

Weather History for KAXN - April, 2013

Change the Weather History Date:

Monday, April 15, 2013

  Actual Average Record
Temperature  
Mean Temperature 32 °F -  
Max Temperature 33 °F 56 °F 78 °F (1976)
Min Temperature 30 °F 33 °F 12 °F (2014)
Degree Days  
Heating Degree Days 34    
Moisture  
Dew Point 28 °F    
Average Humidity 87    
Maximum Humidity 93    
Minimum Humidity 78    
Precipitation  
Precipitation 0.00 in - - ()
Sea Level Pressure  
Sea Level Pressure 29.60 in    
Wind  
Wind Speed 16 mph (WSW)    
Max Wind Speed 23 mph    
Max Gust Speed 31 mph    
Visibility 6 miles    
Events Snow    
Averages and records for this station are not official NWS values.
T = Trace of Precipitation, MM = Missing Value Source: NWS Daily Summary

Daily Weather History Graph

Daily Weather History Graph

Search for Another Location

Airport or City:

Trip Planner

Search our weather history database for the weather conditions in past years. The results will help you decide how hot, cold, wet, or windy it might be!

Date:

Astronomy

Apr. 15, 2013 Rise Set
Actual Time 6:35 AM CDT 8:08 PM CDT
Civil Twilight 6:03 AM CDT 8:40 PM CDT
Nautical Twilight 5:26 AM CDT 9:18 PM CDT
Astronomical Twilight 4:45 AM CDT 9:59 PM CDT
Moon 9:52 AM CDT (4/15) 12:30 AM CDT (4/15)
Length of Visible Light 14h 36m
Length of Day
13h 33m
Waxing Crescent, 25% of the Moon is Illuminated
Apr 15
Waxing Crescent
Apr 18
First Quarter
Apr 25
Full
May 2
Last Quarter
May 9
New

Hourly Weather History & Observations

Time (CDT) Temp. Windchill Dew Point Humidity Pressure Visibility Wind Dir Wind Speed Gust Speed Precip Events Conditions
12:13 AM 32.0 °F 22.1 °F 30.2 °F 93% 29.37 in 2.0 mi ESE 13.8 mph - N/A   Overcast
12:53 AM 33.1 °F 23.4 °F 30.9 °F 92% 29.41 in 2.0 mi SSE 13.8 mph - N/A   Overcast
1:14 AM 33.8 °F 26.4 °F 30.2 °F 87% 29.35 in 6.0 mi South 9.2 mph - N/A   Overcast
1:29 AM 33.8 °F 25.8 °F 30.2 °F 87% 29.35 in 10.0 mi South 10.4 mph - N/A   Overcast
1:53 AM 33.1 °F 23.9 °F 30.9 °F 92% 29.39 in 10.0 mi South 12.7 mph 19.6 mph N/A   Overcast
2:53 AM 32.0 °F 20.5 °F 28.9 °F 88% 29.38 in 5.0 mi South 18.4 mph - N/A   Overcast
3:53 AM 32.0 °F 22.5 °F 28.9 °F 88% 29.38 in 4.0 mi South 12.7 mph - 0.00 in Snow Light Snow
4:10 AM 32.0 °F 21.6 °F 30.2 °F 93% 29.33 in 2.0 mi SSW 15.0 mph - 0.00 in Snow Light Snow
4:25 AM 32.0 °F 21.6 °F 30.2 °F 93% 29.33 in 4.0 mi SW 15.0 mph - 0.00 in Snow Light Snow
4:41 AM 32.0 °F 21.6 °F 28.4 °F 87% 29.34 in 1.8 mi SW 15.0 mph 23.0 mph 0.00 in Snow Light Snow
4:53 AM 30.9 °F 19.8 °F 28.9 °F 92% 29.39 in 2.5 mi SW 16.1 mph 21.9 mph 0.00 in Snow Light Snow
5:45 AM 30.2 °F 19.8 °F 28.4 °F 93% 29.35 in 4.0 mi SW 13.8 mph - 0.00 in Snow Light Snow
5:53 AM 30.9 °F 19.1 °F 28.9 °F 92% 29.40 in 4.0 mi SW 18.4 mph - 0.00 in Snow Light Snow
6:13 AM 30.2 °F 18.1 °F 28.4 °F 93% 29.35 in 7.0 mi SW 18.4 mph - 0.00 in   Overcast
6:53 AM 30.9 °F 18.7 °F 28.9 °F 92% 29.43 in 5.0 mi SW 19.6 mph - 0.00 in   Overcast
7:18 AM 30.2 °F 18.1 °F 28.4 °F 93% 29.40 in 1.8 mi SW 18.4 mph - N/A   Overcast
7:27 AM 30.2 °F 17.4 °F 28.4 °F 93% 29.40 in 0.8 mi WSW 20.7 mph 28.8 mph N/A   Overcast
7:41 AM 30.2 °F 16.8 °F 28.4 °F 93% 29.42 in 1.5 mi WSW 23.0 mph 27.6 mph N/A   Overcast
7:53 AM 30.0 °F 17.9 °F 28.0 °F 92% 29.48 in 1.8 mi WSW 18.4 mph 31.1 mph N/A   Overcast
8:00 AM 30.2 °F 17.8 °F 28.4 °F 93% 29.43 in 2.5 mi WSW 19.6 mph 27.6 mph N/A   Overcast
8:13 AM 30.2 °F 18.5 °F 28.4 °F 93% 29.44 in 5.0 mi WSW 17.3 mph 24.2 mph N/A   Overcast
8:53 AM 30.0 °F 17.2 °F 28.0 °F 92% 29.50 in 10.0 mi West 20.7 mph 26.5 mph N/A   Overcast
9:26 AM 30.2 °F 17.4 °F 28.4 °F 93% 29.46 in 1.8 mi West 20.7 mph 27.6 mph 0.00 in Snow Light Snow
9:33 AM 30.2 °F 17.1 °F 28.4 °F 93% 29.46 in 1.5 mi West 21.9 mph 27.6 mph 0.00 in Snow Light Snow
9:40 AM 30.2 °F 17.1 °F 28.4 °F 93% 29.46 in 3.0 mi WSW 21.9 mph 28.8 mph 0.00 in Snow Light Snow
9:53 AM 30.9 °F 18.7 °F 28.0 °F 89% 29.52 in 5.0 mi West 19.6 mph 25.3 mph 0.00 in   Overcast
10:53 AM 32.0 °F 20.1 °F 28.0 °F 85% 29.58 in 10.0 mi West 19.6 mph 25.3 mph N/A   Overcast
11:53 AM 32.0 °F 20.5 °F 28.0 °F 85% 29.64 in 10.0 mi West 18.4 mph 26.5 mph N/A   Overcast
12:53 PM 32.0 °F 20.5 °F 28.0 °F 85% 29.67 in 10.0 mi West 18.4 mph 27.6 mph N/A   Overcast
1:36 PM 33.8 °F 22.2 °F 28.4 °F 81% 29.65 in 10.0 mi West 20.7 mph 27.6 mph N/A   Overcast
1:53 PM 33.1 °F 22.2 °F 28.0 °F 82% 29.71 in 10.0 mi West 17.3 mph - N/A   Overcast
2:53 PM 33.1 °F 20.6 °F 27.0 °F 78% 29.75 in 10.0 mi West 23.0 mph 29.9 mph N/A   Overcast
3:53 PM 33.1 °F 22.6 °F 28.0 °F 82% 29.77 in 6.0 mi West 16.1 mph - 0.00 in   Haze
4:18 PM 33.8 °F 23.2 °F 28.4 °F 81% 29.74 in 1.8 mi West 17.3 mph 25.3 mph 0.00 in Snow Light Snow
4:33 PM 33.8 °F 23.5 °F 28.4 °F 81% 29.74 in 1.0 mi WNW 16.1 mph 24.2 mph 0.00 in Snow Light Snow
4:44 PM 33.8 °F 23.5 °F 28.4 °F 81% 29.75 in 2.0 mi West 16.1 mph 24.2 mph 0.00 in Snow Light Snow
4:53 PM 33.1 °F 21.2 °F 28.9 °F 85% 29.81 in 1.8 mi West 20.7 mph 27.6 mph 0.00 in Snow Light Snow
5:13 PM 33.8 °F 22.8 °F 28.4 °F 81% 29.76 in 2.5 mi West 18.4 mph 25.3 mph 0.00 in Snow Light Snow
5:21 PM 33.8 °F 23.2 °F 28.4 °F 81% 29.77 in 4.0 mi West 17.3 mph - 0.00 in Snow Light Snow
5:53 PM 33.1 °F 22.2 °F 28.0 °F 82% 29.84 in 9.0 mi West 17.3 mph 25.3 mph 0.00 in   Overcast
6:12 PM 33.8 °F 23.9 °F 28.4 °F 81% 29.79 in 8.0 mi West 15.0 mph - N/A   Overcast
6:53 PM 33.1 °F 22.6 °F 28.0 °F 82% 29.88 in 10.0 mi West 16.1 mph 23.0 mph 0.00 in   Overcast
7:53 PM 33.1 °F 22.6 °F 28.0 °F 82% 29.90 in 10.0 mi WNW 16.1 mph 23.0 mph N/A   Overcast
8:16 PM 32.0 °F 21.2 °F 28.4 °F 87% 29.86 in 10.0 mi WNW 16.1 mph - N/A   Overcast
8:49 PM 32.0 °F 20.8 °F 28.4 °F 87% 29.88 in 10.0 mi WNW 17.3 mph - N/A   Overcast
8:53 PM 32.0 °F 22.1 °F 28.0 °F 85% 29.94 in 10.0 mi WNW 13.8 mph - N/A   Overcast
9:53 PM 32.0 °F 21.2 °F 27.0 °F 82% 29.97 in 9.0 mi WNW 16.1 mph - N/A   Overcast
10:51 PM 30.2 °F 18.5 °F 26.6 °F 86% 29.94 in 10.0 mi WNW 17.3 mph - N/A   Overcast
10:53 PM 30.9 °F 19.1 °F 27.0 °F 85% 30.00 in 10.0 mi WNW 18.4 mph - N/A   Overcast
11:53 PM 30.9 °F 19.8 °F 27.0 °F 85% 30.02 in 10.0 mi WNW 16.1 mph - 0.00 in   Overcast